Theta_e
339 343 349 350 348 347 346 345 344 344 344 346 347 346 344 344 344 343 342 341 340 338 338 339 339 338 338 336 337 339 340 341 341 344 344 344 343 344 343 342 341 338 340
341 342 347 349 350 349 347 345 344 343 342 343 344 344 343 344 344 343 342 341 339 337 340 338 336 337 337 337 339 340 340 340 342 343 343 343 343 343 341 340 340 337 337
340 342 346 348 349 349 347 346 345 342 342 340 340 341 342 342 342 341 340 339 338 337 341 340 337 337 336 337 339 339 340 340 342 342 341 342 341 342 341 338 337 336 335
339 342 345 345 349 349 348 347 345 343 342 340 338 337 338 340 340 339 337 338 338 338 340 339 336 336 337 338 339 340 341 341 341 340 341 340 340 341 340 338 336 335 333
339 342 344 345 349 348 347 347 345 344 343 341 340 337 337 336 337 336 336 336 337 337 339 339 336 334 338 339 340 340 341 340 339 339 340 339 339 339 339 337 334 333 333
340 341 342 344 348 348 347 347 345 344 343 341 340 339 337 337 336 336 337 337 338 338 338 337 336 336 339 339 341 341 340 338 338 337 340 338 337 338 336 334 332 331 332
340 341 342 342 346 347 347 347 345 344 343 341 340 339 339 333 336 338 338 337 337 337 337 336 336 338 340 340 341 341 339 336 338 336 334 335 334 335 335 333 331 330 328
340 341 340 337 340 343 345 345 345 343 343 342 340 339 338 337 337 338 338 337 337 338 336 336 336 340 339 340 340 339 335 333 333 332 333 333 335 335 334 331 330 329 327
340 341 341 340 340 333 338 340 341 342 341 341 340 338 337 337 337 337 336 337 338 338 338 337 333 339 340 338 338 336 332 331 333 333 333 334 335 335 333 330 329 327 326
340 340 341 342 342 343 344 333 335 337 338 338 337 335 332 331 332 332 331 334 337 338 337 335 334 337 339 338 336 332 329 329 335 334 333 332 335 334 332 329 327 326 325
330 338 340 341 342 341 342 339 331 331 333 333 333 330 328 332 332 331 328 330 334 336 336 335 335 336 336 334 332 329 327 334 332 331 331 331 334 333 331 328 326 325 323
308 315 332 339 340 341 339 342 342 342 341 340 338 337 334 332 332 330 326 326 330 330 333 334 334 334 331 335 334 328 333 333 331 330 332 331 333 332 330 327 325 324 322
305 307 309 310 319 335 338 340 341 342 342 342 339 338 335 332 332 332 331 329 330 323 331 331 332 332 332 333 333 331 333 332 330 330 328 329 332 331 329 326 324 323 321
303 305 307 308 308 313 322 330 339 337 338 339 340 339 336 332 331 330 330 330 329 330 330 332 332 332 331 333 331 329 330 330 330 329 327 326 330 330 328 326 324 322 321
302 303 305 307 307 308 311 317 323 327 336 336 336 337 336 332 329 330 330 327 329 329 330 331 329 330 331 331 330 330 328 329 329 328 328 321 326 328 327 326 324 322 320
301 302 304 305 306 307 307 311 314 321 323 329 335 333 334 332 329 326 326 327 326 327 329 331 328 328 328 329 329 329 328 327 327 327 327 324 324 326 326 325 323 322 319
302 303 303 304 305 305 306 308 310 314 317 320 324 329 333 330 329 326 325 325 325 325 326 329 329 326 325 325 325 326 328 326 326 324 324 323 323 321 323 323 322 322 320
302 302 303 303 303 305 306 307 308 312 315 319 322 325 327 330 330 326 325 326 325 325 325 324 326 325 322 323 322 322 324 325 325 324 322 321 322 320 320 322 322 321 319
301 302 302 304 304 305 306 306 308 310 313 316 319 321 324 326 329 328 327 324 324 324 324 324 323 324 321 320 320 320 321 321 321 321 320 320 319 319 318 319 318 318 318
302 302 301 301 302 303 305 308 309 311 312 315 318 320 322 323 324 326 328 327 323 321 321 322 322 323 322 320 317 314 316 316 315 315 314 315 315 316 319 318 317 315 316
302 304 304 302 303 305 307 308 309 309 312 313 315 316 317 318 319 322 324 326 325 321 320 321 321 319 318 318 304 297 297 299 311 313 313 313 313 315 316 318 316 315 314
300 302 304 305 305 304 305 306 306 304 305 306 308 310 313 313 315 317 321 323 323 322 320 320 320 318 315 308 309 304 297 297 296 296 307 311 311 314 315 314 313 313 313
298 300 303 303 302 302 303 303 302 303 304 304 305 307 309 308 312 312 314 318 319 322 320 318 319 318 311 305 313 309 295 299 295 292 294 301 311 309 312 310 311 311 311
296 298 299 300 300 300 301 300 298 298 297 300 302 304 305 306 306 308 311 314 317 319 319 320 318 317 313 307 310 311 301 301 299 290 291 293 298 304 306 304 308 307 307
296 297 298 298 298 298 299 298 298 297 299 300 301 302 303 304 305 305 307 309 313 315 318 319 318 316 314 310 310 309 297 297 308 301 296 289 290 294 298 299 300 301 302
296 296 297 296 296 297 298 298 297 297 297 298 298 299 300 302 303 303 304 306 308 311 313 315 318 318 314 311 311 309 304 299 303 305 307 295 295 290 294 294 294 296 298
Wind_Speed
8 14 11 18 19 17 15 14 13 12 11 11 11 12 11 11 11 12 11 10 9 8 9 12 11 13 13 13 13 14 13 13 14 14 15 15 15 22 22 19 20 19 21
4 13 9 16 18 18 15 15 13 13 12 11 10 9 10 11 13 13 12 11 9 8 11 11 10 11 12 12 11 12 11 14 10 11 11 17 21 23 22 21 19 18 20
8 14 15 11 16 16 16 15 15 13 13 13 11 10 10 10 11 10 10 9 9 10 12 13 12 12 13 11 12 11 10 9 12 10 15 13 17 23 22 21 20 19 18
8 12 14 10 14 15 14 15 15 14 14 13 12 11 11 11 9 10 8 9 9 9 13 14 13 13 13 13 12 10 10 11 11 10 11 15 16 21 21 20 18 19 19
9 12 11 10 13 14 14 15 14 13 12 12 11 12 10 9 10 9 9 9 10 10 12 13 14 15 14 13 12 13 13 13 10 12 14 14 13 17 20 19 19 18 16
7 10 10 9 12 14 14 14 14 14 13 12 11 12 13 12 11 9 9 11 13 13 13 14 12 14 14 13 12 16 16 16 13 11 12 13 13 17 19 18 18 18 16
5 7 9 8 8 12 13 15 15 14 14 14 13 12 11 12 11 11 13 11 13 13 13 15 15 15 13 12 14 17 19 13 15 13 8 13 12 18 19 19 19 18 18
3 4 7 8 5 8 11 14 15 16 15 14 14 14 12 12 13 13 13 12 14 16 14 14 15 13 13 11 13 16 15 14 12 12 10 11 14 17 18 18 19 18 18
3 6 7 10 12 7 8 10 13 14 15 15 15 14 12 13 12 13 13 13 14 15 15 14 17 14 13 12 12 14 14 12 13 7 10 10 15 19 19 18 18 18 18
1 5 7 8 9 11 12 10 11 13 13 13 13 12 11 12 12 12 12 11 13 15 16 17 16 13 13 11 11 15 10 7 12 12 9 8 17 19 19 18 17 18 18
1 3 5 7 8 10 11 9 10 11 13 14 15 14 13 13 15 16 13 12 12 13 16 17 16 14 11 10 13 14 14 9 11 8 8 14 18 19 20 19 18 18 17
3 4 4 6 7 9 8 12 12 13 13 14 15 15 12 14 13 14 14 14 14 12 16 16 17 14 11 10 9 13 10 11 8 7 9 15 20 19 20 19 19 18 17
7 5 5 4 5 7 6 5 5 5 7 9 17 15 12 10 10 11 9 10 11 12 9 14 14 12 15 11 11 9 9 11 8 7 12 16 21 21 20 20 19 18 17
10 10 9 8 7 7 6 6 7 5 6 7 11 16 11 8 9 9 9 13 12 10 12 13 10 13 15 16 13 11 12 11 9 8 12 17 20 22 21 20 19 19 18
13 13 12 8 8 7 7 7 8 8 7 7 9 13 11 10 11 11 12 10 12 13 13 13 14 12 13 15 12 15 13 12 14 9 9 15 20 21 22 21 21 19 17
10 11 11 10 9 8 9 10 9 9 9 9 8 8 13 10 10 11 10 12 10 11 13 13 13 10 10 12 13 15 15 13 13 12 11 11 17 21 22 22 21 20 17
9 9 10 10 8 9 10 9 8 8 9 9 9 12 12 8 11 12 9 8 10 10 13 14 13 10 9 10 14 13 12 15 14 14 13 10 12 16 19 22 22 21 19
9 10 11 9 10 10 10 8 7 8 8 8 9 10 14 14 14 7 10 13 13 11 11 11 13 12 10 11 11 10 10 11 14 17 14 12 12 11 13 21 22 22 20
8 10 11 10 11 10 9 7 7 8 8 8 8 9 12 13 14 11 9 8 10 11 14 15 14 14 13 11 11 11 10 11 12 11 15 17 15 13 11 18 17 19 19
7 8 9 7 9 8 7 6 6 6 6 7 7 8 11 9 12 11 11 11 9 8 9 11 15 13 13 12 10 8 8 9 9 11 12 10 11 13 14 16 13 12 16
6 7 7 7 7 6 6 6 6 7 5 5 6 10 11 10 11 11 9 11 11 11 12 13 14 14 9 11 8 5 4 4 6 10 9 10 11 13 12 14 11 10 10
7 9 11 10 8 7 6 5 5 6 8 8 8 10 11 12 12 11 11 11 12 11 13 15 16 9 9 11 8 10 5 0 1 3 5 7 14 11 15 14 14 16 14
12 13 11 11 10 10 10 8 9 9 9 9 10 10 12 15 13 13 13 11 12 11 11 11 15 23 12 9 13 7 6 5 4 1 1 4 14 9 12 12 15 15 14
13 13 13 13 14 14 15 13 15 13 15 12 13 12 11 14 14 14 14 13 13 10 12 11 11 10 16 18 11 11 2 6 8 4 1 1 4 9 11 8 12 13 13
12 11 13 14 15 16 15 15 13 16 13 12 12 16 16 14 15 16 15 14 13 11 12 13 13 13 10 10 18 15 4 3 11 8 8 4 1 2 5 8 8 9 11
13 13 14 15 16 17 17 18 20 20 18 15 15 13 12 11 11 16 17 15 15 14 14 13 14 14 9 11 13 14 14 9 8 10 13 12 12 5 5 5 6 7 8
Wind_Direction
191 176 184 167 163 161 154 150 148 147 147 146 153 158 160 152 150 147 155 156 154 152 151 144 146 157 150 143 150 133 132 129 133 132 128 127 128 114 101 92 90 90 92
174 182 178 175 169 166 163 157 155 152 154 154 153 161 164 156 152 157 161 161 165 169 151 143 138 141 136 144 139 141 139 145 132 110 117 118 118 108 101 97 96 98 96
176 176 180 184 176 173 169 165 160 164 162 162 166 169 165 164 162 157 153 161 170 175 160 144 146 142 145 155 155 153 146 129 118 122 140 127 117 112 111 107 107 107 102
165 176 185 177 175 176 167 161 162 173 172 177 174 176 173 159 165 170 160 178 189 167 153 151 151 151 154 169 165 154 148 137 135 142 141 130 120 121 118 116 112 108 105
171 180 180 168 178 178 171 166 167 175 178 178 187 178 180 188 182 167 183 191 177 172 164 158 163 160 170 170 163 158 141 130 134 163 137 135 127 126 121 116 114 113 105
179 184 155 183 181 177 174 171 174 177 179 180 184 183 184 193 192 189 189 195 183 175 170 166 175 182 174 175 156 152 142 134 147 127 129 121 119 122 120 116 114 112 112
188 194 189 198 194 179 177 178 181 182 183 183 187 195 200 202 211 183 185 198 185 174 182 175 180 189 176 174 166 157 141 143 133 129 124 122 121 129 124 123 120 118 115
209 205 211 191 226 208 196 190 189 187 189 190 192 194 202 184 217 193 194 197 196 181 180 186 196 182 173 184 177 152 143 146 139 134 134 132 133 131 127 126 123 120 117
191 196 204 207 206 224 215 203 199 200 198 193 197 198 198 196 199 197 194 202 202 190 180 185 195 187 184 192 186 152 155 171 146 148 138 134 143 136 132 131 127 124 124
174 216 214 218 224 227 220 206 206 201 201 200 203 202 201 198 193 198 197 213 212 194 188 183 204 194 193 195 183 160 158 161 158 148 144 140 151 143 139 132 132 130 127
53 242 238 232 236 240 241 229 213 221 208 204 200 200 202 209 206 199 193 205 225 209 196 187 202 199 200 180 154 151 158 171 157 158 145 157 149 148 140 136 136 131 131
325 317 291 249 255 247 248 247 233 231 228 219 215 218 212 217 214 209 199 193 205 220 199 200 198 200 188 188 176 158 184 174 159 161 152 165 153 150 143 141 139 135 133
303 284 269 293 290 260 246 248 242 241 242 233 227 216 216 225 220 210 204 203 207 213 209 205 204 210 206 197 176 178 199 177 169 163 155 166 156 153 147 145 144 138 139
291 276 267 265 271 266 267 261 245 239 246 245 231 224 210 214 218 213 211 203 204 207 206 209 205 205 213 198 183 179 192 180 174 164 160 156 159 158 152 151 147 145 145
274 277 273 272 266 264 263 258 254 251 236 238 242 236 220 216 212 212 212 210 202 205 207 214 216 202 201 196 187 188 185 186 172 165 161 161 162 161 158 156 153 150 152
270 270 273 267 260 257 252 253 258 258 253 239 225 242 228 229 222 216 218 212 205 218 210 215 207 202 198 185 190 198 189 181 171 172 161 162 163 164 163 161 159 151 159
280 279 268 274 267 255 256 254 253 255 256 259 257 245 229 250 237 205 212 214 206 209 217 218 209 193 199 187 186 191 188 185 170 166 157 163 167 166 166 167 161 157 164
274 278 281 265 262 259 250 245 242 243 247 251 252 252 255 241 226 228 236 209 203 195 203 209 211 191 200 192 180 184 186 178 178 172 166 162 171 174 168 165 167 162 170
276 284 280 277 267 263 262 257 251 253 250 247 245 246 250 254 242 230 219 230 243 214 207 206 197 208 198 190 185 176 175 177 173 174 179 174 175 170 171 170 161 163 172
269 270 271 274 274 270 265 262 251 244 244 250 249 247 245 245 243 246 247 231 203 221 226 211 214 197 204 192 177 162 172 171 171 177 170 170 179 172 173 172 160 163 169
302 312 299 284 265 248 246 251 247 251 244 244 249 246 239 236 241 239 237 244 234 224 204 212 213 207 199 185 141 87 57 45 194 170 177 169 186 185 181 175 168 159 169
322 308 290 279 271 260 260 260 274 278 270 267 266 259 252 250 241 236 228 233 235 236 223 211 208 203 176 180 175 162 163 340 332 38 163 195 191 180 185 175 168 170 169
344 323 305 283 280 276 268 280 281 271 266 263 256 252 247 246 242 238 236 233 229 227 233 229 223 201 187 182 206 178 148 174 130 98 241 217 197 185 181 180 172 171 172
338 317 301 289 280 276 275 273 269 267 268 264 266 257 252 249 250 244 236 234 230 226 222 230 223 241 191 185 197 202 293 138 172 147 235 211 221 195 180 185 175 171 172
316 302 297 291 284 280 277 275 271 266 266 266 262 259 251 250 247 241 241 236 231 231 226 221 226 225 215 218 199 187 197 96 217 156 179 165 247 227 192 191 175 173 175
304 292 292 292 288 286 282 278 275 272 270 266 260 257 252 249 243 240 236 233 229 227 227 232 224 215 193 190 223 210 192 164 210 183 184 171 182 185 181 187 184 184 177